Location: Grange Verzio
(44.5000°N, 6.9833°E)
Time: 00:39:21
(UTC+00:00)

Cosmos 1023 Rocket - Pass Details

Date: 01 February 2023
Orbit: 736 x 771 km, 74.1° (Epoch: 24 March)

Event Time Altitude Azimuth Distance (km) Brightness Sun altitude
Rises 17:09:05 0° 195° (SSW) 3,195 8.2 -5.6°
Reaches altitude 10° 17:11:27 10° 194° (SSW) 2,269 7.4 -6.0°
Maximum altitude 17:16:35 78° 109° (ESE) 768 4.4 -6.8°
Drops below altitude 10° 17:21:42 10° 23° (NNE) 2,263 6.6 -7.7°
Sets 17:24:03 0° 23° (NNE) 3,186 7.3 -8.1°
